{"data":{"norad_id":49440,"intl_designator":"2021-104AJ","name":"STARLINK-3105","alt_names":[],"object_type":"PAYLOAD","status":"ACTIVE","operator":null,"country":"US","launch_date":"2021-11-13","launch_site_code":"AFETR","launch_vehicle":null,"mission":null,"orbit_class":"UNKNOWN","rcs_meters":null,"size_class":null,"mass_kg":null,"dimensions":null,"purposes":["comms"],"wikipedia_slug":null,"has_3d_model":false,"image_url":null,"decayed_at":null,"tle_current":{"epoch":"2026-09-20T00:02:10.705056Z","epoch_age_seconds":83139,"freshness":"FRESH","line1":"1 49440U 21104AJ  26263.00151279  .00011326  00000+0  35430-3 0  9993","line2":"2 49440  53.1650  53.6983 0001594  88.2462 271.8722 15.33628151268286","mean_motion":15.33628151,"eccentricity":0.0001594,"inclination_deg":53.165,"raan_deg":53.6983,"arg_perigee_deg":88.2462,"mean_anomaly_deg":271.8722,"bstar":0.0003543,"rev_number":26828,"period_min":93.89499006399,"perigee_km":463.90750442468,"apogee_km":466.08909595838,"semimajor_km":6843.1353001915,"source":"CELESTRAK","updated_at":"2026-09-20T09:00:39.261065Z"}}}